This is the latest recevied weather packets stored in our database for station/object OM1PU-6. If no packets are shown the sender has not sent any weather packets the latest 10 day(s).
| Time | Temp. | Humidity | Pressure | Rain* | Wind** | Luminosity | Snow |
|---|---|---|---|---|---|---|---|
| 1777556894 | 16.67° C | 32% | 1038.9 hPa | 0 mm | - | - | - |
| 1777555994 | 16.67° C | 31% | 1039 hPa | 0 mm | - | - | - |
| 1777555094 | 17.22° C | 30% | 1039 hPa | 0 mm | - | - | - |
| 1777554194 | 17.22° C | 30% | 1039.1 hPa | 0 mm | - | - | - |
| 1777553295 | 16.11° C | 33% | 1039.5 hPa | 0 mm | - | - | - |
| 1777552395 | 16.67° C | 29% | 1039.6 hPa | 0 mm | - | - | - |
| 1777551494 | 15.56° C | 31% | 1039.6 hPa | 0 mm | - | - | - |
| 1777550594 | 16.11° C | 33% | 1040 hPa | 0 mm | - | - | - |
| 1777549694 | 15° C | 32% | 1040.1 hPa | 0 mm | - | - | - |
| 1777548794 | 15.56° C | 31% | 1040.1 hPa | 0 mm | - | - | - |
| 1777547894 | 14.44° C | 31% | 1040 hPa | 0 mm | - | - | - |
| 1777546994 | 15° C | 34% | 1040.4 hPa | 0 mm | - | - | - |
| 1777546094 | 13.89° C | 34% | 1040.5 hPa | 0 mm | - | - | - |
| 1777545194 | 14.44° C | 34% | 1040.9 hPa | 0 mm | - | - | - |
| 1777544294 | 13.89° C | 32% | 1040.8 hPa | 0 mm | - | - | - |
| 1777543394 | 13.33° C | 33% | 1040.7 hPa | 0 mm | - | - | - |
| 1777542494 | 13.33° C | 35% | 1040.9 hPa | 0 mm | - | - | - |
| 1777541594 | 12.78° C | 36% | 1041 hPa | 0 mm | - | - | - |
| 1777540694 | 12.22° C | 36% | 1041.1 hPa | 0 mm | - | - | - |
| 1777539794 | 12.22° C | 36% | 1040.9 hPa | 0 mm | - | - | - |
| 1777538894 | 12.78° C | 36% | 1041.1 hPa | 0 mm | - | - | - |
| 1777537994 | 12.78° C | 34% | 1041.2 hPa | 0 mm | - | - | - |
| 1777537094 | 11.11° C | 36% | 1041.5 hPa | 0 mm | - | - | - |
| 1777536194 | 10.56° C | 38% | 1041.7 hPa | 0 mm | - | - | - |
| 1777535293 | 11.11° C | 40% | 1041.8 hPa | 0 mm | - | - | - |
* Rain latest 24 hours (hover to see other rain measurements)
** Current wind speed in m/s (hover to see current wind gust speed)